Theta_e
331 335 335 335 334 333 333 333 332 332 330 330 329 329 329 328 325 316 310 320 324 332 333 321 320 318 316 314 313 312 308 305 305 303 307 307 307 308 308 308 308 311 310 315 327
328 331 334 335 333 333 333 333 332 331 330 329 329 329 329 326 317 311 324 329 334 340 318 316 315 315 312 311 312 311 307 306 305 303 304 306 306 307 306 307 307 309 313 317 327
326 328 331 334 334 333 333 332 332 331 330 329 329 328 327 323 309 309 335 338 337 341 319 318 316 313 309 310 309 307 306 307 304 305 304 303 304 306 305 305 309 308 310 315 322
323 325 326 330 333 333 332 332 332 331 329 329 328 327 326 316 299 314 332 343 341 331 318 316 313 310 308 305 308 304 305 306 306 306 305 304 305 304 306 308 308 309 310 315 317
320 322 325 327 331 332 332 331 331 331 329 328 327 326 316 305 305 315 334 344 330 322 315 313 309 308 305 307 306 305 305 305 306 304 305 304 304 304 304 308 308 307 309 313 316
317 320 321 323 325 331 331 331 331 329 328 327 326 324 310 299 312 321 325 329 323 317 313 313 310 309 306 305 305 305 304 304 304 304 304 302 304 302 306 307 307 306 308 312 315
316 317 319 320 321 324 330 331 330 329 328 326 324 318 308 306 313 318 315 319 319 317 312 314 312 309 308 303 305 303 301 304 305 304 303 302 301 301 307 307 306 306 308 309 313
314 316 317 318 319 320 329 330 328 327 327 325 323 316 304 313 316 313 315 314 317 316 313 315 313 309 307 307 304 301 301 298 301 300 300 301 297 304 304 304 304 306 307 308 309
312 315 316 315 316 319 323 328 327 327 325 322 315 310 302 314 308 312 313 312 314 315 313 311 312 307 306 302 300 300 295 296 298 301 300 300 298 303 303 303 304 305 306 307 308
314 314 315 314 314 316 317 327 326 324 321 319 314 303 306 304 308 311 314 313 312 311 308 307 307 303 303 300 292 295 295 297 296 299 299 299 299 303 306 305 305 306 306 307 307
312 314 314 314 313 313 314 318 308 305 311 304 303 304 302 307 310 309 312 310 309 309 302 305 300 297 300 302 301 300 297 296 300 301 299 300 300 302 305 305 304 305 306 306 307
312 313 313 313 312 311 310 307 313 311 300 309 306 304 307 308 302 307 312 306 304 301 303 299 297 301 303 302 300 299 297 296 300 300 297 300 299 302 303 304 305 305 305 306 307
311 311 312 312 311 307 305 306 315 306 300 300 307 303 303 306 302 303 308 306 303 301 300 298 300 302 300 298 297 298 297 297 296 299 299 296 296 299 302 302 304 304 305 306 306
309 310 311 311 304 306 306 315 313 309 292 295 298 303 304 304 299 307 309 305 302 299 300 300 302 298 298 297 298 294 300 298 297 296 292 295 289 297 300 301 303 304 304 304 305
308 309 309 310 304 301 307 311 315 308 280 298 300 309 306 301 303 301 309 305 299 299 300 298 297 297 296 297 300 296 300 298 297 295 294 294 291 297 300 298 301 302 302 304 305
307 308 309 307 306 306 308 310 309 288 279 294 299 297 298 300 302 301 303 306 305 300 298 300 301 301 301 301 300 300 297 295 295 294 288 294 293 294 296 298 299 302 303 302 303
307 307 307 307 300 308 311 303 285 280 296 291 292 296 297 296 299 299 297 297 296 292 292 297 297 300 300 297 298 299 296 289 288 287 287 291 289 294 300 302 302 302 304 303 302
307 307 307 305 309 308 303 290 279 290 292 296 295 294 294 297 298 298 297 295 299 299 295 291 289 296 300 299 296 296 296 290 283 286 289 289 287 294 301 302 302 302 302 302 302
306 305 304 306 308 307 293 281 284 290 296 293 294 291 292 296 296 297 297 296 298 299 294 292 292 299 298 301 301 294 292 299 292 291 287 291 294 298 302 300 300 301 301 302 302
301 298 300 307 308 301 287 283 288 296 297 296 291 294 290 293 292 294 295 299 297 300 302 296 291 296 297 298 296 297 299 290 292 284 283 289 289 291 297 298 300 300 302 302 302
299 292 301 307 306 293 282 285 289 294 297 293 293 291 295 292 294 293 295 298 300 298 301 299 296 291 294 294 294 293 292 293 294 292 286 285 289 298 297 298 298 300 301 302 302
295 286 303 307 288 290 284 287 292 293 296 296 295 294 294 295 293 293 295 298 301 300 295 299 296 291 292 296 298 299 296 296 290 287 290 289 290 300 300 300 299 301 301 302 303
289 290 301 301 284 284 288 288 291 292 294 295 294 296 296 294 291 294 295 298 300 299 297 299 294 288 288 291 293 293 296 297 296 296 290 287 290 299 299 300 301 300 302 301 303
290 283 291 294 293 287 286 285 285 292 291 295 294 295 294 293 296 292 293 295 299 300 304 301 296 293 288 291 295 290 293 294 294 290 290 291 292 298 299 300 302 302 303 303 302
290 285 290 281 286 288 288 288 286 286 295 297 294 293 295 292 292 292 295 293 296 299 300 299 292 294 295 295 295 293 293 293 292 293 290 293 293 296 299 301 303 304 304 302 302
287 286 289 287 286 288 288 285 287 289 293 292 292 296 295 293 294 291 295 295 294 296 297 298 293 294 291 294 294 292 294 294 293 294 294 294 294 301 302 303 301 302 302 301 300
294 294 288 285 285 284 286 286 289 293 295 298 297 296 294 296 299 300 299 299 298 296 295 295 293 291 288 293 292 287 292 293 294 295 295 291 296 301 300 300 301 302 302 302 302
Wind_Speed
18 15 13 13 10 9 9 9 8 7 7 8 10 10 12 13 16 10 11 4 2 2 7 6 5 3 3 3 1 2 5 5 4 5 4 5 6 4 0 5 4 5 1 5 12
19 19 15 14 12 10 9 9 8 7 8 7 9 9 10 11 12 14 9 5 9 7 7 10 8 5 5 3 3 5 6 3 1 1 0 3 4 5 5 6 7 7 6 8 13
21 19 19 17 14 12 11 10 9 8 8 8 8 9 10 11 9 3 0 6 12 11 5 5 5 5 5 3 4 3 8 3 4 2 1 1 3 3 6 7 8 8 7 11 15
19 21 20 19 17 13 12 11 10 9 7 7 7 8 9 4 6 3 9 7 13 10 8 7 6 8 7 7 3 8 3 3 2 3 3 3 0 5 9 10 1 3 4 11 15
19 19 21 21 18 15 13 11 11 9 6 6 5 6 5 6 11 3 7 1 13 11 11 10 8 8 12 9 6 8 5 4 3 4 4 2 9 11 10 10 6 3 6 11 12
19 19 19 21 22 19 14 12 11 7 6 5 3 5 5 10 1 2 1 7 8 11 9 7 6 5 6 6 11 4 5 4 4 5 4 6 11 4 8 5 10 9 11 11 12
19 17 18 21 22 23 13 12 12 9 7 5 3 5 8 15 2 2 2 2 6 9 8 8 4 7 6 5 2 3 6 6 9 4 5 3 12 15 16 8 10 11 10 11 12
19 17 17 18 20 21 17 13 11 9 8 5 4 5 10 4 4 13 9 4 4 5 3 4 6 3 2 6 4 5 4 8 5 4 2 6 12 7 2 8 12 11 11 11 14
18 18 14 16 18 21 17 14 9 10 8 6 5 6 10 3 7 12 13 8 7 6 3 5 5 3 5 8 6 5 8 6 4 3 2 9 8 1 2 5 8 10 12 13 14
17 14 13 13 17 22 23 16 13 9 7 4 4 6 10 7 6 5 12 11 5 11 8 6 6 9 8 10 10 9 9 6 9 4 5 8 16 16 15 12 15 14 13 14 16
17 13 13 11 11 16 12 4 5 4 9 11 10 7 3 2 4 6 9 12 6 12 13 10 12 17 19 16 13 9 7 11 11 4 5 14 17 17 17 16 17 17 17 16 18
16 14 11 9 10 12 8 7 13 3 7 23 14 16 6 1 7 8 12 15 12 14 12 7 18 19 13 11 11 11 12 14 12 4 6 14 19 20 19 21 20 19 19 18 17
16 13 14 6 7 6 8 13 9 3 6 8 23 11 6 8 6 17 17 16 17 17 18 19 10 11 14 10 12 14 15 14 12 9 10 11 17 12 10 11 15 16 17 17 19
17 15 12 3 8 2 5 15 4 11 4 10 15 15 11 8 9 8 16 16 7 21 16 15 11 13 14 18 16 17 12 12 12 10 12 3 9 15 16 20 17 16 13 13 16
16 16 13 10 6 5 5 12 4 5 8 13 22 8 18 21 14 12 14 6 17 13 13 12 14 17 14 14 14 15 5 9 8 12 11 14 10 5 10 19 15 3 2 9 12
17 20 17 9 11 8 5 8 3 7 10 8 15 21 19 25 19 9 12 4 5 12 6 16 2 13 18 12 15 11 6 3 2 5 13 15 13 7 8 6 6 5 6 4 10
20 20 18 11 11 4 0 3 6 8 13 12 13 20 30 18 26 17 19 19 14 13 17 14 13 6 4 11 5 15 10 7 8 8 12 2 7 14 19 14 15 15 12 5 7
19 21 13 11 11 11 1 3 12 8 12 6 9 14 29 21 25 23 21 22 24 19 12 16 13 17 14 18 9 18 18 10 9 10 7 3 8 4 5 8 13 11 9 7 8
20 9 6 10 13 8 3 6 7 5 16 12 19 19 18 20 14 21 28 26 25 24 15 16 15 9 11 11 17 9 13 15 18 6 9 11 12 14 20 9 3 6 6 6 8
8 9 10 8 13 8 5 12 11 4 10 19 13 16 22 28 18 23 24 23 25 26 21 9 6 7 11 7 2 12 13 8 9 10 14 8 8 9 12 10 11 10 6 3 6
7 4 3 15 10 6 8 9 15 16 14 14 11 10 17 26 25 27 19 11 30 24 23 13 11 6 8 16 19 10 11 6 6 13 10 11 6 4 4 3 10 9 6 3 8
4 5 3 11 8 6 13 9 12 16 18 12 5 4 18 23 22 22 24 19 24 24 31 22 12 13 14 3 10 22 20 21 13 11 8 13 16 7 7 8 6 8 5 2 5
3 5 5 8 9 11 13 12 16 10 15 8 12 9 5 18 14 18 15 7 18 24 22 19 13 13 8 6 4 12 18 19 22 14 19 14 4 4 5 5 3 6 2 3 6
3 4 3 5 6 10 18 22 25 19 23 16 7 4 9 13 6 17 13 5 15 22 12 21 11 22 13 3 14 14 17 18 20 16 14 19 18 17 15 15 10 6 7 5 5
3 4 1 5 10 19 18 10 25 22 22 15 12 14 14 10 15 11 13 7 6 9 14 17 20 16 20 8 11 14 15 19 23 23 21 16 21 18 20 18 13 12 12 13 10
3 2 2 8 12 15 19 20 19 29 10 20 19 25 14 12 16 15 15 16 14 8 20 9 10 18 16 13 13 14 17 19 23 23 23 21 23 16 17 16 15 14 13 12 10
2 3 4 8 13 8 11 26 23 25 26 22 27 18 20 15 11 11 8 11 13 16 20 16 10 12 17 16 13 16 20 20 19 17 19 21 20 20 14 15 15 13 11 12 9
Wind_Direction
322 285 255 240 234 236 245 259 265 273 287 303 312 318 320 319 310 266 255 250 176 213 181 163 186 159 189 148 145 230 230 212 184 191 146 152 195 163 214 171 187 179 282 97 135
326 317 279 246 230 227 235 245 256 267 285 298 306 315 319 324 301 271 253 253 227 170 195 195 195 183 181 159 158 234 238 209 125 148 212 162 234 174 208 195 209 203 153 138 157
338 325 318 269 233 222 225 234 242 249 276 291 306 316 320 315 285 237 315 236 223 188 227 220 196 210 195 194 178 171 238 178 174 203 218 193 231 203 228 220 234 234 210 174 179
330 329 326 320 253 224 221 225 234 236 260 284 303 314 315 274 280 134 333 293 189 194 181 175 191 204 202 198 164 228 217 211 146 177 194 240 266 236 232 258 3 267 242 183 195
317 324 333 330 292 231 218 221 231 229 237 266 290 320 284 231 250 319 324 100 164 177 189 186 189 207 215 211 180 229 217 209 227 218 234 258 254 272 248 250 238 230 205 209 208
308 313 323 330 335 259 210 216 227 208 217 240 269 299 241 250 318 312 14 155 176 181 189 191 205 208 213 213 216 163 204 218 243 232 238 248 263 249 243 259 227 215 224 217 211
301 304 316 325 327 329 225 210 215 201 197 217 228 250 243 246 158 175 344 207 182 198 184 202 182 198 158 167 153 161 225 225 224 235 239 260 259 243 263 229 242 224 221 217 212
294 294 302 314 321 334 251 204 200 200 174 195 214 220 253 225 247 250 237 237 204 199 242 189 173 145 237 125 146 218 239 246 124 175 119 212 273 272 294 231 246 241 225 215 213
284 297 295 305 313 321 303 197 198 189 147 153 199 228 258 129 218 228 213 208 181 174 147 125 183 168 167 207 214 207 255 235 269 188 167 222 281 120 141 219 257 245 233 223 221
283 289 285 302 317 312 327 179 183 155 144 160 253 216 231 221 175 180 189 191 166 158 149 173 186 197 210 214 222 230 233 236 257 149 209 250 264 275 279 267 265 258 242 229 223
275 281 294 286 309 309 331 174 148 167 198 196 196 235 111 187 173 186 172 170 144 188 192 187 205 209 213 222 248 247 244 270 274 257 271 273 277 282 281 275 259 255 245 233 224
299 288 293 281 302 314 304 258 208 136 185 228 239 254 258 291 180 179 177 178 186 198 195 182 220 222 228 216 211 230 248 260 281 282 247 291 287 283 276 269 267 263 253 238 226
314 294 296 280 313 286 230 261 317 281 263 172 221 230 211 202 210 181 186 190 196 197 200 210 212 188 194 193 211 229 246 261 269 308 252 294 274 261 276 258 267 253 250 246 226
321 314 295 270 291 294 249 281 140 317 219 207 180 232 213 186 226 173 197 178 187 209 202 226 190 186 199 216 217 242 226 254 267 282 285 347 290 291 289 283 270 270 245 236 227
320 309 295 257 286 266 28 1 9 105 223 185 181 164 177 195 134 193 185 185 193 177 197 194 190 200 205 216 208 246 218 241 256 264 293 249 271 265 277 279 296 352 293 250 228
318 315 297 275 247 262 313 328 307 182 222 198 157 176 163 199 202 130 173 205 189 192 225 231 162 211 216 207 190 144 145 147 197 258 251 257 240 281 263 274 300 290 281 301 209
309 304 281 265 253 253 225 327 215 226 145 183 183 177 187 179 187 176 181 188 180 187 204 196 207 182 173 177 161 194 208 237 232 212 258 62 241 258 275 295 288 289 299 309 206
310 309 273 247 248 237 146 163 240 193 201 180 173 180 197 157 198 193 183 197 208 206 186 199 205 202 181 217 184 202 210 221 242 255 285 145 233 218 286 292 287 278 279 282 203
315 301 264 231 220 202 171 204 229 177 191 169 147 167 192 187 179 188 203 203 196 197 195 200 222 182 190 193 203 170 217 238 259 263 263 252 246 272 280 288 298 317 287 253 202
309 296 260 210 188 190 193 217 244 211 245 170 163 192 183 185 187 196 191 207 200 198 204 183 208 177 170 171 157 213 157 183 213 241 244 232 255 252 292 339 340 336 291 229 192
284 259 238 179 168 203 242 215 227 251 272 224 191 169 195 180 193 195 194 191 195 187 202 186 225 141 171 204 196 180 194 217 258 234 248 260 237 214 260 310 330 332 328 252 193
284 262 308 158 183 205 215 202 249 269 251 266 258 155 187 180 192 194 209 201 193 180 194 191 205 207 207 158 262 220 217 211 219 189 240 267 261 232 263 302 302 303 319 249 198
259 271 264 201 209 211 225 217 226 255 233 242 232 209 166 173 181 202 203 195 183 184 187 172 202 200 200 203 186 220 215 232 231 247 251 237 242 161 218 263 263 277 255 239 188
264 282 237 213 229 231 215 214 223 238 244 261 262 166 165 179 190 183 189 162 187 189 187 174 199 212 210 241 183 203 213 212 222 230 236 242 257 264 263 268 275 260 248 237 208
217 254 327 284 238 234 228 228 212 218 217 210 249 221 189 168 183 184 164 139 163 185 184 191 215 213 230 206 206 207 204 207 220 232 239 251 253 247 251 263 263 262 256 251 260
254 264 294 286 294 251 227 231 227 215 219 216 226 223 216 192 192 173 163 178 174 175 189 204 215 207 219 218 221 226 225 226 224 229 241 246 257 264 264 276 272 262 254 252 241
232 245 259 275 274 289 244 214 214 216 205 226 207 219 229 238 200 186 145 159 157 166 181 178 167 187 227 218 230 246 226 227 230 229 232 235 245 259 256 259 254 259 250 257 258